Weather History for Huntingburg, IN

Change the Weather History Date:

Sunday, May 26, 2013

  Actual Average Record
Temperature  
Mean Temperature 64 °F -  
Max Temperature 75 °F 73 °F 91 °F (2012)
Min Temperature 53 °F 55 °F 46 °F (2003)
Degree Days  
Heating Degree Days 1    
Growing Degree Days 14 (Base 50)    
Moisture  
Dew Point 51 °F    
Average Humidity 63    
Maximum Humidity 77    
Minimum Humidity 47    
Precipitation  
Precipitation 0.00 in - - ()
Sea Level Pressure  
Sea Level Pressure 30.23 in    
Wind  
Wind Speed 7 mph (ESE)    
Max Wind Speed 13 mph    
Max Gust Speed 16 mph    
Visibility 10 miles    
Events      
Averages and records for this station are not official NWS values.
T = Trace of Precipitation, MM = Missing Value Source: NWS Daily Summary

Daily Weather History Graph

Daily Weather History Graph

Search for Another Location

Airport:

Trip Planner

Search our weather history database for the weather conditions in past years. The results will help you decide how hot, cold, wet, or windy it might be!

Date:

Astronomy

May. 26, 2013 Rise Set
Actual Time 6:28 AM EDT 9:01 PM EDT
Civil Twilight 5:58 AM EDT 9:31 PM EDT
Nautical Twilight 5:20 AM EDT 10:09 PM EDT
Astronomical Twilight 4:38 AM EDT 10:52 PM EDT
Moon 10:48 PM EDT (5/26) 7:57 AM EDT (5/26)
Length of Visible Light 15h 33m
Length of Day
14h 32m
Waning Gibbous, 97% of the Moon is Illuminated
May 26
Waning Gibbous
May 31
Last Quarter
Jun 8
New
Jun 16
First Quarter
Jun 23
Full

Hourly Weather History & Observations

Time (EDT) Temp. Dew Point Humidity Pressure Visibility Wind Dir Wind Speed Gust Speed Precip Events Conditions
12:15 AM 59.0 °F 44.6 °F 59% 30.26 in 10.0 mi ENE 10.4 mph 16.1 mph N/A   Mostly Cloudy
12:35 AM 59.0 °F 44.6 °F 59% 30.25 in 10.0 mi East 8.1 mph 16.1 mph N/A   Partly Cloudy
1:15 AM 57.2 °F 44.6 °F 63% 30.26 in 10.0 mi NE 12.7 mph 16.1 mph N/A   Partly Cloudy
1:35 AM 57.2 °F 44.6 °F 63% 30.27 in 10.0 mi ENE 6.9 mph - N/A   Partly Cloudy
1:55 AM 55.4 °F 44.6 °F 67% 30.26 in 10.0 mi ENE 6.9 mph - N/A   Scattered Clouds
2:15 AM 55.4 °F 44.6 °F 67% 30.26 in 10.0 mi East 6.9 mph - N/A   Mostly Cloudy
2:35 AM 55.4 °F 44.6 °F 67% 30.27 in 10.0 mi ENE 5.8 mph - N/A   Overcast
3:15 AM 55.4 °F 46.4 °F 72% 30.26 in 10.0 mi East 5.8 mph - N/A   Mostly Cloudy
3:35 AM 55.4 °F 46.4 °F 72% 30.26 in 10.0 mi East 4.6 mph - N/A   Overcast
3:55 AM 55.4 °F 46.4 °F 72% 30.25 in 10.0 mi East 8.1 mph - N/A   Overcast
4:15 AM 55.4 °F 46.4 °F 72% 30.25 in 10.0 mi East 8.1 mph - N/A   Overcast
4:35 AM 55.4 °F 46.4 °F 72% 30.25 in 10.0 mi East 6.9 mph - N/A   Overcast
4:55 AM 55.4 °F 46.4 °F 72% 30.25 in 10.0 mi East 4.6 mph - N/A   Overcast
5:15 AM 55.4 °F 46.4 °F 72% 30.25 in 10.0 mi East 6.9 mph - N/A   Overcast
5:35 AM 53.6 °F 46.4 °F 77% 30.26 in 10.0 mi East 6.9 mph - N/A   Overcast
5:55 AM 53.6 °F 46.4 °F 77% 30.25 in 10.0 mi East 8.1 mph - N/A   Mostly Cloudy
6:35 AM 53.6 °F 46.4 °F 77% 30.26 in 10.0 mi East 5.8 mph - N/A   Mostly Cloudy
6:55 AM 55.4 °F 46.4 °F 72% 30.25 in 10.0 mi SE 9.2 mph - N/A   Mostly Cloudy
7:15 AM 55.4 °F 48.2 °F 77% 30.25 in 10.0 mi ESE 8.1 mph - N/A   Overcast
7:35 AM 55.4 °F 48.2 °F 77% 30.26 in 10.0 mi ESE 8.1 mph - N/A   Overcast
7:55 AM 55.4 °F 48.2 °F 77% 30.26 in 10.0 mi ESE 8.1 mph - N/A   Overcast
8:15 AM 57.2 °F 48.2 °F 72% 30.25 in 10.0 mi ESE 8.1 mph - N/A   Overcast
8:35 AM 57.2 °F 48.2 °F 72% 30.26 in 10.0 mi East 6.9 mph - N/A   Overcast
8:55 AM 57.2 °F 48.2 °F 72% 30.26 in 10.0 mi SE 8.1 mph - N/A   Overcast
9:15 AM 57.2 °F 48.2 °F 72% 30.27 in 10.0 mi East 8.1 mph - N/A   Overcast
9:35 AM 57.2 °F 48.2 °F 72% 30.28 in 10.0 mi ENE 4.6 mph - N/A   Overcast
9:55 AM 57.2 °F 50.0 °F 77% 30.28 in 10.0 mi ENE 5.8 mph - N/A   Overcast
10:15 AM 57.2 °F 50.0 °F 77% 30.29 in 10.0 mi East 4.6 mph - N/A   Overcast
10:35 AM 59.0 °F 50.0 °F 72% 30.28 in 10.0 mi ESE 6.9 mph - N/A   Overcast
10:55 AM 60.8 °F 51.8 °F 72% 30.28 in 10.0 mi ESE 5.8 mph - N/A   Mostly Cloudy
11:15 AM 62.6 °F 51.8 °F 68% 30.29 in 10.0 mi East 3.5 mph - N/A   Scattered Clouds
11:35 AM 62.6 °F 51.8 °F 68% 30.29 in 10.0 mi ENE 3.5 mph - N/A   Mostly Cloudy
11:55 AM 64.4 °F 51.8 °F 64% 30.29 in 10.0 mi ESE 5.8 mph - N/A   Mostly Cloudy
12:15 PM 64.4 °F 53.6 °F 68% 30.29 in 10.0 mi SE 5.8 mph - N/A   Mostly Cloudy
12:35 PM 66.2 °F 51.8 °F 60% 30.29 in 10.0 mi ESE 5.8 mph - N/A   Mostly Cloudy
12:55 PM 64.4 °F 53.6 °F 68% 30.25 in 10.0 mi SE 10.4 mph - N/A   Partly Cloudy
1:15 PM 66.2 °F 53.6 °F 64% 30.25 in 10.0 mi SE 8.1 mph - N/A   Clear
1:55 PM 69.8 °F 53.6 °F 56% 30.25 in 10.0 mi SE 8.1 mph - N/A   Clear
2:15 PM 71.6 °F 51.8 °F 50% 30.24 in 10.0 mi ESE 8.1 mph - N/A   Clear
2:35 PM 71.6 °F 51.8 °F 50% 30.24 in 10.0 mi ESE 8.1 mph - N/A   Clear
2:55 PM 71.6 °F 51.8 °F 50% 30.24 in 10.0 mi Calm Calm - N/A   Clear
3:35 PM 73.4 °F 53.6 °F 50% 30.23 in 10.0 mi ESE 3.5 mph - N/A   Clear
3:55 PM 73.4 °F 53.6 °F 50% 30.22 in 10.0 mi SSE 3.5 mph - N/A   Clear
4:15 PM 73.4 °F 53.6 °F 50% 30.22 in 10.0 mi East 3.5 mph - N/A   Clear
4:35 PM 73.4 °F 53.6 °F 50% 30.21 in 10.0 mi ENE 3.5 mph - N/A   Partly Cloudy
4:55 PM 73.4 °F 53.6 °F 50% 30.20 in 10.0 mi ESE 4.6 mph - N/A   Clear
5:15 PM 73.4 °F 55.4 °F 53% 30.18 in 10.0 mi ESE 3.5 mph - N/A   Clear
5:35 PM 75.2 °F 55.4 °F 50% 30.17 in 10.0 mi ESE 10.4 mph - N/A   Clear
5:55 PM 75.2 °F 53.6 °F 47% 30.17 in 10.0 mi SE 6.9 mph - N/A   Clear
6:15 PM 75.2 °F 53.6 °F 47% 30.16 in 10.0 mi SSE 10.4 mph - N/A   Clear
6:35 PM 75.2 °F 55.4 °F 50% 30.15 in 10.0 mi SE 9.2 mph - N/A   Partly Cloudy
7:15 PM 73.4 °F 53.6 °F 50% 30.15 in 10.0 mi South 4.6 mph - N/A   Scattered Clouds
7:35 PM 73.4 °F 53.6 °F 50% 30.15 in 10.0 mi SSE 6.9 mph - N/A   Partly Cloudy
7:55 PM 73.4 °F 55.4 °F 53% 30.15 in 10.0 mi SE 9.2 mph - N/A   Clear
8:15 PM 73.4 °F 53.6 °F 50% 30.15 in 10.0 mi SSE 5.8 mph - N/A   Clear
8:35 PM 71.6 °F 53.6 °F 53% 30.15 in 10.0 mi SE 8.1 mph - N/A   Partly Cloudy
8:55 PM 69.8 °F 53.6 °F 56% 30.15 in 10.0 mi SE 5.8 mph - N/A   Clear
9:15 PM 69.8 °F 55.4 °F 60% 30.15 in 10.0 mi ESE 4.6 mph - N/A   Clear
9:35 PM 68.0 °F 53.6 °F 60% 30.15 in 10.0 mi East 4.6 mph - N/A   Clear
9:55 PM 68.0 °F 55.4 °F 64% 30.14 in 10.0 mi ESE 6.9 mph - N/A   Scattered Clouds
10:15 PM 69.8 °F 55.4 °F 60% 30.15 in 10.0 mi East 5.8 mph - N/A   Overcast
10:35 PM 68.0 °F 55.4 °F 64% 30.15 in 10.0 mi ESE 6.9 mph - N/A   Mostly Cloudy
10:55 PM 66.2 °F 55.4 °F 68% 30.15 in 10.0 mi ESE 8.1 mph - N/A   Mostly Cloudy
11:15 PM 66.2 °F 55.4 °F 68% 30.15 in 10.0 mi East 6.9 mph - N/A   Partly Cloudy
11:35 PM 66.2 °F 53.6 °F 64% 30.14 in 10.0 mi ESE 10.4 mph - N/A   Clear
11:55 PM 66.2 °F 53.6 °F 64% 30.14 in 10.0 mi ESE 9.2 mph - N/A   Clear